Time,TemperatureF,DewpointF,PressureIn,WindDirection,WindDirectionDegrees,WindSpeedMPH,WindSpeedGustMPH,Humidity,HourlyPrecipIn,Conditions,Clouds,dailyrainin,SoftwareType,DateUTC
2013-05-08 00:02:00,59.0,46.0,30.06,ESE,105,0.0,1.0,62,0.00,,,0.00,,2013-05-08 05:02:00,
2013-05-08 00:12:00,59.0,46.0,30.06,ESE,105,0.0,1.0,62,0.00,,,0.00,,2013-05-08 05:12:00,
2013-05-08 00:22:00,58.0,45.0,30.06,ESE,105,1.0,1.0,61,0.00,,,0.00,,2013-05-08 05:22:00,
2013-05-08 00:32:00,58.0,45.0,30.06,ESE,105,0.0,0.0,63,0.00,,,0.00,,2013-05-08 05:32:00,
2013-05-08 00:42:00,58.0,45.0,30.06,ESE,105,0.0,0.0,63,0.00,,,0.00,,2013-05-08 05:42:00,
2013-05-08 00:52:00,57.0,45.0,30.06,ESE,105,0.0,0.0,65,0.00,,,0.00,,2013-05-08 05:52:00,
2013-05-08 01:01:00,56.0,45.0,30.06,ESE,105,0.0,0.0,67,0.00,,,0.00,,2013-05-08 06:01:00,
2013-05-08 01:12:00,56.0,45.0,30.06,ESE,105,0.0,0.0,67,0.00,,,0.00,,2013-05-08 06:12:00,
2013-05-08 01:21:00,55.0,45.0,30.05,ESE,105,0.0,0.0,69,0.00,,,0.00,,2013-05-08 06:21:00,
2013-05-08 01:32:00,54.0,45.0,30.05,ESE,105,0.0,0.0,72,0.00,,,0.00,,2013-05-08 06:32:00,
2013-05-08 01:42:00,54.0,45.0,30.05,ESE,105,0.0,0.0,72,0.00,,,0.00,,2013-05-08 06:42:00,
2013-05-08 01:52:00,54.0,45.0,30.05,ESE,105,0.0,0.0,72,0.00,,,0.00,,2013-05-08 06:52:00,
2013-05-08 02:01:00,53.0,45.0,30.05,ESE,105,0.0,0.0,74,0.00,,,0.00,,2013-05-08 07:01:00,
2013-05-08 02:11:00,53.0,45.0,30.05,ESE,105,0.0,0.0,74,0.00,,,0.00,,2013-05-08 07:11:00,
2013-05-08 02:21:00,53.0,46.0,30.05,ESE,105,0.0,0.0,76,0.00,,,0.00,,2013-05-08 07:21:00,
2013-05-08 02:31:00,52.0,45.0,30.05,ESE,105,0.0,0.0,77,0.00,,,0.00,,2013-05-08 07:31:00,
2013-05-08 02:42:00,52.0,45.0,30.05,ESE,105,0.0,0.0,77,0.00,,,0.00,,2013-05-08 07:42:00,
2013-05-08 02:52:00,52.0,45.0,30.05,ESE,105,0.0,0.0,78,0.00,,,0.00,,2013-05-08 07:52:00,
2013-05-08 03:01:00,52.0,45.0,30.05,ESE,105,0.0,0.0,78,0.00,,,0.00,,2013-05-08 08:01:00,
2013-05-08 03:11:00,52.0,45.0,30.05,ESE,105,0.0,0.0,78,0.00,,,0.00,,2013-05-08 08:11:00,
2013-05-08 03:21:00,51.0,44.0,30.05,ESE,105,0.0,0.0,78,0.00,,,0.00,,2013-05-08 08:21:00,
2013-05-08 03:31:00,51.0,44.0,30.05,ESE,105,0.0,0.0,78,0.00,,,0.00,,2013-05-08 08:31:00,
2013-05-08 03:42:00,51.0,44.0,30.05,ESE,105,0.0,0.0,78,0.00,,,0.00,,2013-05-08 08:42:00,
2013-05-08 03:51:00,51.0,45.0,30.06,ESE,105,0.0,0.0,79,0.00,,,0.00,,2013-05-08 08:51:00,
2013-05-08 04:02:00,51.0,45.0,30.06,ESE,105,1.0,2.0,79,0.00,,,0.00,,2013-05-08 09:02:00,
2013-05-08 04:11:00,51.0,45.0,30.06,ESE,105,1.0,2.0,79,0.00,,,0.00,,2013-05-08 09:11:00,
2013-05-08 04:21:00,51.0,45.0,30.06,ESE,105,0.0,2.0,80,0.00,,,0.00,,2013-05-08 09:21:00,
2013-05-08 04:32:00,51.0,45.0,30.06,ESE,105,0.0,1.0,79,0.00,,,0.00,,2013-05-08 09:32:00,
2013-05-08 04:42:00,51.0,45.0,30.06,ESE,105,0.0,1.0,79,0.00,,,0.00,,2013-05-08 09:42:00,
2013-05-08 04:52:00,51.0,45.0,30.06,ESE,105,0.0,0.0,79,0.00,,,0.00,,2013-05-08 09:52:00,
2013-05-08 05:02:00,51.0,45.0,30.06,ESE,105,0.0,0.0,80,0.00,,,0.00,,2013-05-08 10:02:00,
2013-05-08 05:12:00,51.0,45.0,30.06,ESE,105,0.0,0.0,80,0.00,,,0.00,,2013-05-08 10:12:00,
2013-05-08 05:22:00,51.0,45.0,30.06,ESE,105,0.0,0.0,80,0.00,,,0.00,,2013-05-08 10:22:00,
2013-05-08 05:33:00,50.0,45.0,30.07,ESE,105,1.0,1.0,82,0.00,,,0.00,,2013-05-08 10:33:00,
2013-05-08 05:42:00,50.0,45.0,30.07,ESE,105,1.0,1.0,82,0.00,,,0.00,,2013-05-08 10:42:00,
2013-05-08 05:52:00,51.0,45.0,30.07,ESE,105,1.0,2.0,81,0.00,,,0.00,,2013-05-08 10:52:00,
2013-05-08 06:02:00,51.0,45.0,30.07,ESE,105,0.0,2.0,80,0.00,,,0.00,,2013-05-08 11:02:00,
2013-05-08 06:11:00,51.0,45.0,30.07,ESE,105,0.0,2.0,80,0.00,,,0.00,,2013-05-08 11:11:00,
2013-05-08 06:22:00,51.0,45.0,30.07,ESE,105,0.0,2.0,81,0.00,,,0.00,,2013-05-08 11:22:00,
2013-05-08 06:32:00,51.0,45.0,30.07,ESE,105,0.0,0.0,80,0.00,,,0.00,,2013-05-08 11:32:00,
2013-05-08 06:42:00,51.0,45.0,30.07,ESE,105,0.0,0.0,80,0.00,,,0.00,,2013-05-08 11:42:00,
2013-05-08 06:52:00,51.0,46.0,30.08,ESE,105,0.0,0.0,82,0.00,,,0.00,,2013-05-08 11:52:00,
2013-05-08 07:01:00,51.0,46.0,30.09,ESE,105,0.0,1.0,82,0.00,,,0.00,,2013-05-08 12:01:00,
2013-05-08 07:11:00,51.0,46.0,30.09,ESE,105,0.0,1.0,82,0.00,,,0.00,,2013-05-08 12:11:00,
2013-05-08 07:21:00,54.0,47.0,30.09,ESE,105,0.0,2.0,76,0.00,,,0.00,,2013-05-08 12:21:00,
2013-05-08 07:32:00,54.0,46.0,30.09,ESE,105,0.0,1.0,75,0.00,,,0.00,,2013-05-08 12:32:00,
2013-05-08 07:41:00,54.0,46.0,30.09,ESE,105,0.0,1.0,75,0.00,,,0.00,,2013-05-08 12:41:00,
2013-05-08 07:52:00,56.0,47.0,30.09,SSE,157,2.0,3.0,72,0.00,,,0.00,,2013-05-08 12:52:00,
2013-05-08 08:01:00,58.0,47.0,30.09,South,178,2.0,8.0,68,0.00,,,0.00,,2013-05-08 13:01:00,
2013-05-08 08:11:00,58.0,47.0,30.09,South,178,2.0,8.0,68,0.00,,,0.00,,2013-05-08 13:11:00,
2013-05-08 08:21:00,60.0,48.0,30.09,SSE,157,2.0,3.0,64,0.00,,,0.00,,2013-05-08 13:21:00,
2013-05-08 08:32:00,62.0,48.0,30.09,SSE,148,2.0,8.0,60,0.00,,,0.00,,2013-05-08 13:32:00,
2013-05-08 08:42:00,62.0,48.0,30.09,SSE,148,2.0,8.0,60,0.00,,,0.00,,2013-05-08 13:42:00,
2013-05-08 08:52:00,64.0,47.0,30.09,South,177,3.0,6.0,55,0.00,,,0.00,,2013-05-08 13:52:00,
2013-05-08 09:02:00,65.0,48.0,30.09,SSE,161,1.0,6.0,54,0.00,,,0.00,,2013-05-08 14:02:00,
2013-05-08 09:11:00,65.0,48.0,30.09,SSE,161,1.0,6.0,54,0.00,,,0.00,,2013-05-08 14:11:00,
2013-05-08 09:21:00,66.0,48.0,30.09,South,173,3.0,7.0,52,0.00,,,0.00,,2013-05-08 14:21:00,
2013-05-08 09:31:00,67.0,47.0,30.09,South,171,4.0,6.0,49,0.00,,,0.00,,2013-05-08 14:31:00,
2013-05-08 09:42:00,67.0,47.0,30.09,South,171,4.0,6.0,49,0.00,,,0.00,,2013-05-08 14:42:00,
2013-05-08 09:51:00,68.0,49.0,30.09,South,182,1.0,7.0,51,0.00,,,0.00,,2013-05-08 14:51:00,
2013-05-08 10:02:00,69.0,48.0,30.08,South,186,2.0,4.0,48,0.00,,,0.00,,2013-05-08 15:02:00,
2013-05-08 10:11:00,69.0,48.0,30.08,South,186,2.0,4.0,48,0.00,,,0.00,,2013-05-08 15:11:00,
2013-05-08 10:21:00,70.0,49.0,30.08,SW,218,2.0,4.0,47,0.00,,,0.00,,2013-05-08 15:21:00,
2013-05-08 10:33:00,70.0,48.0,30.08,SSW,210,0.0,3.0,46,0.00,,,0.00,,2013-05-08 15:33:00,
2013-05-08 10:42:00,70.0,48.0,30.08,SSW,210,0.0,3.0,46,0.00,,,0.00,,2013-05-08 15:42:00,
2013-05-08 10:52:00,71.0,47.0,30.08,WSW,245,0.0,5.0,42,0.00,,,0.00,,2013-05-08 15:52:00,
2013-05-08 11:03:00,72.0,47.0,30.08,WSW,245,0.0,5.0,41,0.00,,,0.00,,2013-05-08 16:03:00,
2013-05-08 11:12:00,72.0,47.0,30.08,WSW,245,0.0,5.0,41,0.00,,,0.00,,2013-05-08 16:12:00,
2013-05-08 11:23:00,73.0,47.0,30.08,West,268,1.0,5.0,40,0.00,,,0.00,,2013-05-08 16:23:00,
2013-05-08 11:33:00,74.0,48.0,30.08,WNW,284,0.0,5.0,40,0.00,,,0.00,,2013-05-08 16:33:00,
2013-05-08 11:42:00,74.0,48.0,30.08,WNW,284,0.0,5.0,40,0.00,,,0.00,,2013-05-08 16:42:00,
2013-05-08 11:52:00,76.0,49.0,30.07,SE,133,1.0,5.0,38,0.00,,,0.00,,2013-05-08 16:52:00,
2013-05-08 12:02:00,77.0,48.0,30.07,SE,138,0.0,4.0,36,0.00,,,0.00,,2013-05-08 17:02:00,
2013-05-08 12:12:00,77.0,48.0,30.07,SE,138,0.0,4.0,36,0.00,,,0.00,,2013-05-08 17:12:00,
2013-05-08 12:22:00,78.0,49.0,30.06,ESE,120,1.0,4.0,36,0.00,,,0.00,,2013-05-08 17:22:00,
2013-05-08 12:31:00,78.0,49.0,30.06,ESE,120,1.0,4.0,36,0.00,,,0.00,,2013-05-08 17:31:00,
2013-05-08 12:41:00,78.0,49.0,30.06,ESE,120,1.0,4.0,36,0.00,,,0.00,,2013-05-08 17:41:00,
2013-05-08 12:52:00,78.0,47.0,30.06,SE,138,2.0,5.0,34,0.00,,,0.00,,2013-05-08 17:52:00,
2013-05-08 13:02:00,79.0,47.0,30.06,SSE,150,3.0,8.0,32,0.00,,,0.00,,2013-05-08 18:02:00,
2013-05-08 13:11:00,79.0,47.0,30.06,SSE,150,3.0,8.0,32,0.00,,,0.00,,2013-05-08 18:11:00,
2013-05-08 13:21:00,78.0,45.0,30.05,SSW,209,2.0,8.0,31,0.00,,,0.00,,2013-05-08 18:21:00,
2013-05-08 13:31:00,77.0,42.0,30.05,SW,227,1.0,5.0,29,0.00,,,0.00,,2013-05-08 18:31:00,
2013-05-08 13:42:00,77.0,42.0,30.05,SW,227,1.0,5.0,29,0.00,,,0.00,,2013-05-08 18:42:00,
2013-05-08 13:52:00,78.0,43.0,30.04,SW,221,0.0,5.0,29,0.00,,,0.00,,2013-05-08 18:52:00,
2013-05-08 14:01:00,78.0,45.0,30.04,SSE,166,4.0,6.0,31,0.00,,,0.00,,2013-05-08 19:01:00,
2013-05-08 14:11:00,78.0,45.0,30.04,SSE,166,4.0,6.0,31,0.00,,,0.00,,2013-05-08 19:11:00,
2013-05-08 14:21:00,79.0,45.0,30.04,South,191,4.0,6.0,30,0.00,,,0.00,,2013-05-08 19:21:00,
2013-05-08 14:32:00,79.0,43.0,30.04,ESE,105,0.0,3.0,28,0.00,,,0.00,,2013-05-08 19:32:00,
2013-05-08 14:42:00,79.0,43.0,30.04,ESE,105,0.0,3.0,28,0.00,,,0.00,,2013-05-08 19:42:00,
2013-05-08 14:52:00,79.0,44.0,30.03,South,177,3.0,7.0,29,0.00,,,0.00,,2013-05-08 19:52:00,
2013-05-08 15:02:00,78.0,43.0,30.03,South,186,0.0,4.0,29,0.00,,,0.00,,2013-05-08 20:02:00,
2013-05-08 15:11:00,78.0,43.0,30.03,South,186,0.0,4.0,29,0.00,,,0.00,,2013-05-08 20:11:00,
2013-05-08 15:22:00,79.0,44.0,30.03,South,186,0.0,2.0,29,0.00,,,0.00,,2013-05-08 20:22:00,
2013-05-08 15:32:00,78.0,45.0,30.02,WNW,295,0.0,4.0,31,0.00,,,0.00,,2013-05-08 20:32:00,
2013-05-08 15:42:00,77.0,45.0,30.02,WNW,302,2.0,3.0,32,0.00,,,0.00,,2013-05-08 20:42:00,
2013-05-08 15:51:00,77.0,45.0,30.02,WNW,302,2.0,3.0,32,0.00,,,0.00,,2013-05-08 20:51:00,
2013-05-08 16:01:00,77.0,43.0,30.01,NW,316,2.0,3.0,30,0.00,,,0.00,,2013-05-08 21:01:00,
2013-05-08 16:12:00,77.0,44.0,30.01,West,267,0.0,5.0,31,0.00,,,0.00,,2013-05-08 21:12:00,
2013-05-08 16:21:00,77.0,44.0,30.01,West,267,0.0,5.0,31,0.00,,,0.00,,2013-05-08 21:21:00,
2013-05-08 16:33:00,78.0,45.0,30.01,ENE,60,0.0,3.0,31,0.00,,,0.00,,2013-05-08 21:33:00,
2013-05-08 16:43:00,78.0,45.0,30.01,ENE,60,0.0,2.0,31,0.00,,,0.00,,2013-05-08 21:43:00,
2013-05-08 16:52:00,78.0,45.0,30.01,ENE,60,0.0,2.0,31,0.00,,,0.00,,2013-05-08 21:52:00,
2013-05-08 17:02:00,77.0,43.0,30.01,SE,146,2.0,5.0,30,0.00,,,0.00,,2013-05-08 22:02:00,
2013-05-08 17:12:00,78.0,44.0,30.01,SE,146,0.0,3.0,30,0.00,,,0.00,,2013-05-08 22:12:00,
2013-05-08 17:22:00,78.0,44.0,30.01,SE,146,0.0,3.0,30,0.00,,,0.00,,2013-05-08 22:22:00,
2013-05-08 17:33:00,78.0,43.0,30.01,SE,140,1.0,5.0,29,0.00,,,0.00,,2013-05-08 22:33:00,
2013-05-08 17:42:00,78.0,44.0,30.01,SSE,155,1.0,4.0,30,0.00,,,0.00,,2013-05-08 22:42:00,
2013-05-08 17:52:00,78.0,44.0,30.01,SSE,155,1.0,4.0,30,0.00,,,0.00,,2013-05-08 22:52:00,
2013-05-08 18:01:00,77.0,44.0,30.01,SE,139,1.0,7.0,31,0.00,,,0.00,,2013-05-08 23:01:00,
2013-05-08 18:11:00,77.0,44.0,30.00,SSE,148,2.0,5.0,31,0.00,,,0.00,,2013-05-08 23:11:00,
2013-05-08 18:22:00,77.0,44.0,30.00,SSE,148,2.0,5.0,31,0.00,,,0.00,,2013-05-08 23:22:00,
2013-05-08 18:32:00,77.0,44.0,30.00,SE,138,2.0,4.0,31,0.00,,,0.00,,2013-05-08 23:32:00,
2013-05-08 18:42:00,77.0,45.0,30.00,SE,146,1.0,3.0,32,0.00,,,0.00,,2013-05-08 23:42:00,
2013-05-08 18:52:00,77.0,45.0,30.00,SE,146,1.0,3.0,32,0.00,,,0.00,,2013-05-08 23:52:00,
2013-05-08 19:02:00,77.0,45.0,30.00,SE,131,2.0,4.0,32,0.00,,,0.00,,2013-05-09 00:02:00,
2013-05-08 19:12:00,77.0,45.0,30.00,SE,131,2.0,4.0,32,0.00,,,0.00,,2013-05-09 00:12:00,
2013-05-08 19:21:00,76.0,46.0,30.00,SE,131,2.0,3.0,34,0.00,,,0.00,,2013-05-09 00:21:00,
2013-05-08 19:32:00,76.0,46.0,30.00,SE,131,0.0,2.0,35,0.00,,,0.00,,2013-05-09 00:32:00,
2013-05-08 19:42:00,74.0,47.0,30.00,SE,131,0.0,1.0,39,0.00,,,0.00,,2013-05-09 00:42:00,
2013-05-08 19:51:00,74.0,47.0,30.00,SE,131,0.0,1.0,39,0.00,,,0.00,,2013-05-09 00:51:00,
2013-05-08 20:01:00,73.0,49.0,30.01,SE,131,0.0,0.0,42,0.00,,,0.00,,2013-05-09 01:01:00,
2013-05-08 20:11:00,73.0,49.0,30.01,SE,131,0.0,0.0,42,0.00,,,0.00,,2013-05-09 01:11:00,
2013-05-08 20:22:00,72.0,47.0,30.01,SE,131,0.0,1.0,41,0.00,,,0.00,,2013-05-09 01:22:00,
2013-05-08 20:32:00,71.0,47.0,30.01,SE,131,0.0,0.0,43,0.00,,,0.00,,2013-05-09 01:32:00,
2013-05-08 20:42:00,70.0,48.0,30.01,SE,138,0.0,1.0,45,0.00,,,0.00,,2013-05-09 01:42:00,
2013-05-08 20:52:00,70.0,48.0,30.01,SE,138,0.0,1.0,45,0.00,,,0.00,,2013-05-09 01:52:00,
2013-05-08 21:02:00,69.0,48.0,30.01,SE,138,0.0,0.0,48,0.00,,,0.00,,2013-05-09 02:02:00,
2013-05-08 21:11:00,68.0,49.0,30.02,SE,138,0.0,1.0,50,0.00,,,0.00,,2013-05-09 02:11:00,
2013-05-08 21:21:00,68.0,49.0,30.02,SE,138,0.0,1.0,50,0.00,,,0.00,,2013-05-09 02:21:00,
2013-05-08 21:32:00,66.0,47.0,30.02,SE,136,2.0,3.0,51,0.00,,,0.00,,2013-05-09 02:32:00,
2013-05-08 21:41:00,66.0,47.0,30.02,SE,136,2.0,3.0,51,0.00,,,0.00,,2013-05-09 02:41:00,
2013-05-08 21:52:00,66.0,47.0,30.02,SE,136,2.0,3.0,51,0.00,,,0.00,,2013-05-09 02:52:00,
2013-05-08 22:01:00,68.0,48.0,30.02,SSE,160,7.0,9.0,49,0.00,,,0.00,,2013-05-09 03:01:00,
2013-05-08 22:11:00,68.0,48.0,30.02,SSE,160,7.0,9.0,49,0.00,,,0.00,,2013-05-09 03:11:00,
2013-05-08 22:21:00,67.0,49.0,30.02,SE,129,1.0,7.0,52,0.00,,,0.00,,2013-05-09 03:21:00,
2013-05-08 22:33:00,66.0,48.0,30.02,SSE,155,5.0,5.0,53,0.00,,,0.00,,2013-05-09 03:33:00,
2013-05-08 22:43:00,66.0,48.0,30.02,SSE,155,5.0,5.0,53,0.00,,,0.00,,2013-05-09 03:43:00,
2013-05-08 22:52:00,66.0,47.0,30.02,SSE,153,3.0,6.0,51,0.00,,,0.00,,2013-05-09 03:52:00,
2013-05-08 23:03:00,66.0,48.0,30.02,SSE,165,0.0,5.0,52,0.00,,,0.00,,2013-05-09 04:03:00,
2013-05-08 23:12:00,66.0,48.0,30.02,SSE,165,0.0,5.0,52,0.00,,,0.00,,2013-05-09 04:12:00,
2013-05-08 23:23:00,65.0,49.0,30.02,SSE,152,0.0,3.0,57,0.00,,,0.00,,2013-05-09 04:23:00,
2013-05-08 23:33:00,63.0,48.0,30.01,SSE,148,2.0,3.0,59,0.00,,,0.00,,2013-05-09 04:33:00,
2013-05-08 23:43:00,63.0,48.0,30.01,SSE,148,2.0,3.0,59,0.00,,,0.00,,2013-05-09 04:43:00,
2013-05-08 23:52:00,63.0,50.0,30.01,SE,146,0.0,3.0,62,0.00,,,0.00,,2013-05-09 04:52:00,